| time (UTC) | temp F | wind direction | speed MPH | gust MPH | rain 1hr in | rain 24hr in | rain mn in | humidity % | barometer mb |
| 20260831230036 | 71 | 265 | 0.0 | 0.0 | 0.00 | 0.06 | 0.00 | 87 | 1019.6 |
| 20260831224535 | 71 | 265 | 0.0 | 0.0 | 0.00 | 0.06 | 0.00 | 86 | 1019.6 |
| 20260831223035 | 72 | 265 | 0.0 | 0.0 | 0.00 | 0.06 | 0.00 | 83 | 1019.7 |
| 20260831221536 | 72 | 265 | 0.0 | 1.0 | 0.00 | 0.06 | 0.00 | 83 | 1019.8 |
| 20260831220034 | 72 | 265 | 0.0 | 4.0 | 0.00 | 0.06 | 0.00 | 81 | 1019.8 |
| 20260831214533 | 73 | 265 | 0.0 | 1.0 | 0.00 | 0.06 | 0.00 | 81 | 1019.8 |
| 20260831213034 | 73 | 265 | 0.0 | 0.0 | 0.00 | 0.06 | 0.00 | 82 | 1019.6 |
| 20260831211534 | 74 | 265 | 0.0 | 2.0 | 0.00 | 0.06 | 0.00 | 79 | 1019.6 |
| 20260831210032 | 74 | 265 | 0.0 | 2.0 | 0.00 | 0.06 | 0.00 | 78 | 1019.7 |
| 20260831204531 | 75 | 265 | 0.0 | 1.0 | 0.00 | 0.06 | 0.00 | 77 | 1019.6 |
| 20260831203034 | 75 | 265 | 0.0 | 1.0 | 0.00 | 0.06 | 0.00 | 78 | 1019.4 |
| 20260831201535 | 76 | 265 | 0.0 | 2.0 | 0.00 | 0.06 | 0.00 | 73 | 1019.7 |
| 20260831200030 | 76 | 265 | 0.0 | 2.0 | 0.00 | 0.06 | 0.00 | 68 | 1019.9 |
| 20260831194529 | 77 | 265 | 0.0 | 2.0 | 0.00 | 0.06 | 0.00 | 70 | 1020.1 |
| 20260831193030 | 77 | 265 | 0.0 | 2.0 | 0.00 | 0.06 | 0.00 | 69 | 1020.1 |
| 20260831191528 | 77 | 265 | 0.0 | 2.0 | 0.00 | 0.06 | 0.00 | 73 | 1020.2 |
| 20260831190027 | 79 | 265 | 0.0 | 2.0 | 0.00 | 0.06 | 0.00 | 66 | 1020.6 |
| 20260831184524 | 78 | 265 | 0.0 | 5.0 | 0.00 | 0.06 | 0.00 | 66 | 1020.5 |
| 20260831183023 | 78 | 265 | 0.0 | 1.0 | 0.00 | 0.06 | 0.00 | 62 | 1020.6 |
| 20260831181523 | 77 | 265 | 1.0 | 3.0 | 0.00 | 0.06 | 0.00 | 58 | 1020.7 |
| 20260831180024 | 77 | 265 | 1.0 | 4.0 | 0.00 | 0.06 | 0.00 | 66 | 1021.1 |
| 20260831174521 | 77 | 265 | 0.0 | 2.0 | 0.00 | 0.06 | 0.00 | 62 | 1021.3 |
| 20260831173020 | 77 | 265 | 1.0 | 4.0 | 0.00 | 0.06 | 0.00 | 57 | 1021.2 |
| 20260831171523 | 78 | 265 | 0.0 | 4.0 | 0.00 | 0.06 | 0.00 | 63 | 1021.0 |
| 20260831170022 | 77 | 265 | 0.0 | 4.0 | 0.00 | 0.06 | 0.00 | 64 | 1021.0 |
| 20260831164519 | 78 | 264 | 1.0 | 2.0 | 0.00 | 0.06 | 0.00 | 66 | 1021.3 |
| 20260831163014 | 77 | 264 | 0.0 | 5.0 | 0.00 | 0.06 | 0.00 | 63 | 1021.4 |
| 20260831161517 | 77 | 265 | 0.0 | 3.0 | 0.00 | 0.06 | 0.00 | 62 | 1021.6 |
| 20260831160012 | 76 | 265 | 1.0 | 4.0 | 0.00 | 0.06 | 0.00 | 67 | 1021.6 |
| 20260831154504 | 74 | 265 | 0.0 | 2.0 | 0.00 | 0.06 | 0.00 | 73 | 1021.5 |
| 20260831153004 | 73 | 265 | 0.0 | 3.0 | 0.00 | 0.06 | 0.00 | 70 | 1021.7 |
| 20260831151503 | 73 | 265 | 0.0 | 3.0 | 0.00 | 0.06 | 0.00 | 74 | 1021.6 |
| 20260831144557 | 72 | 265 | 0.0 | 4.0 | 0.00 | 0.06 | 0.00 | 83 | 1021.6 |
| 20260831143109 | 70 | 231 | 0.0 | 4.0 | 0.00 | 0.06 | 0.00 | 80 | 1021.7 |
| 20260831141551 | 69 | 212 | 0.0 | 3.0 | 0.00 | 0.06 | 0.00 | 90 | 1021.6 |
| 20260831140051 | 68 | 245 | 0.0 | 0.0 | 0.00 | 0.06 | 0.00 | 93 | 1021.5 |
| 20260831134549 | 68 | 258 | 0.0 | 0.0 | 0.00 | 0.06 | 0.00 | 94 | 1021.5 |
| 20260831133047 | 68 | 258 | 0.0 | 0.0 | 0.00 | 0.06 | 0.00 | 96 | 1021.4 |
| 20260831131549 | 67 | 258 | 0.0 | 0.0 | 0.00 | 0.06 | 0.00 | 96 | 1021.4 |
| 20260831130051 | 67 | 161 | 0.0 | 0.0 | 0.00 | 0.06 | 0.00 | 96 | 1021.2 |
| 20260831124546 | 66 | 161 | 0.0 | 0.0 | 0.00 | 0.06 | 0.00 | 96 | 1021.4 |
| 20260831123045 | 66 | 161 | 0.0 | 0.0 | 0.00 | 0.06 | 0.00 | 96 | 1021.4 |
| 20260831121544 | 65 | 161 | 0.0 | 0.0 | 0.00 | 0.06 | 0.00 | 96 | 1021.4 |
| 20260831120043 | 65 | 161 | 0.0 | 0.0 | 0.00 | 0.06 | 0.00 | 96 | 1021.4 |
| 20260831114549 | 65 | 161 | 0.0 | 0.0 | 0.00 | 0.06 | 0.00 | 96 | 1021.1 |
| 20260831113041 | 64 | 161 | 0.0 | 0.0 | 0.00 | 0.06 | 0.00 | 96 | 1021.1 |
| 20260831111542 | 64 | 161 | 0.0 | 0.0 | 0.00 | 0.06 | 0.00 | 96 | 1021.0 |
| 20260831110047 | 64 | 161 | 0.0 | 0.0 | 0.00 | 0.06 | 0.00 | 95 | 1020.7 |
| 20260831104541 | 64 | 161 | 0.0 | 0.0 | 0.00 | 0.06 | 0.00 | 95 | 1020.6 |
| 20260831103038 | 64 | 161 | 0.0 | 0.0 | 0.00 | 0.06 | 0.00 | 95 | 1020.6 |
| 20260831101542 | 65 | 161 | 0.0 | 0.0 | 0.00 | 0.06 | 0.00 | 96 | 1020.2 |
| 20260831100030 | 65 | 161 | 0.0 | 0.0 | 0.00 | 0.06 | 0.00 | 96 | 1020.2 |
| 20260831094532 | 65 | 161 | 0.0 | 0.0 | 0.00 | 0.06 | 0.00 | 96 | 1020.1 |
| 20260831093031 | 65 | 161 | 0.0 | 0.0 | 0.00 | 0.06 | 0.00 | 95 | 1020.0 |
| 20260831091538 | 65 | 161 | 0.0 | 0.0 | 0.00 | 0.06 | 0.00 | 96 | 1019.9 |
| 20260831090026 | 65 | 161 | 0.0 | 0.0 | 0.00 | 0.06 | 0.00 | 95 | 1019.8 |
| 20260831084525 | 65 | 161 | 0.0 | 0.0 | 0.00 | 0.06 | 0.00 | 96 | 1020.1 |
| 20260831083024 | 65 | 161 | 0.0 | 0.0 | 0.00 | 0.06 | 0.00 | 96 | 1020.3 |
| 20260831081524 | 65 | 161 | 0.0 | 0.0 | 0.00 | 0.06 | 0.00 | 95 | 1020.3 |
| 20260831080027 | 65 | 161 | 0.0 | 0.0 | 0.00 | 0.06 | 0.00 | 95 | 1020.1 |
| 20260831074521 | 66 | 161 | 0.0 | 0.0 | 0.00 | 0.06 | 0.00 | 95 | 1019.9 |
| 20260831073019 | 66 | 161 | 0.0 | 0.0 | 0.00 | 0.06 | 0.00 | 95 | 1019.9 |
| 20260831071519 | 66 | 161 | 0.0 | 0.0 | 0.00 | 0.06 | 0.00 | 95 | 1020.0 |
| 20260831070018 | 67 | 161 | 0.0 | 0.0 | 0.00 | 0.06 | 0.00 | 95 | 1019.9 |
| 20260831064515 | 67 | 161 | 0.0 | 0.0 | 0.00 | 0.06 | 0.00 | 95 | 1020.1 |
| 20260831063014 | 67 | 161 | 0.0 | 0.0 | 0.00 | 0.06 | 0.00 | 95 | 1019.9 |
| 20260831061517 | 68 | 161 | 0.0 | 0.0 | 0.00 | 0.06 | 0.00 | 95 | 1019.9 |
| 20260831060010 | 68 | 161 | 0.0 | 0.0 | 0.00 | 0.06 | 0.00 | 95 | 1020.1 |
| 20260831054511 | 68 | 161 | 0.0 | 0.0 | 0.00 | 0.06 | 0.00 | 95 | 1019.8 |
| 20260831053007 | 68 | 161 | 0.0 | 0.0 | 0.00 | 0.06 | 0.00 | 95 | 1019.8 |
| 20260831051507 | 68 | 161 | 0.0 | 0.0 | 0.00 | 0.06 | 0.00 | 95 | 1019.7 |
| 20260831050005 | 68 | 161 | 0.0 | 0.0 | 0.00 | 0.06 | 0.00 | 95 | 1019.7 |
| 20260831044503 | 69 | 161 | 0.0 | 0.0 | 0.00 | 0.06 | 0.00 | 95 | 1019.5 |
| 20260831043001 | 69 | 161 | 0.0 | 0.0 | 0.00 | 0.06 | 0.00 | 95 | 1019.5 |
| 20260831041613 | 69 | 161 | 0.0 | 0.0 | 0.00 | 0.06 | 0.00 | 95 | 1019.5 |
| 20260831040056 | 69 | 161 | 0.0 | 0.0 | 0.00 | 0.06 | 0.00 | 95 | 1019.3 |
| 20260831034556 | 70 | 161 | 0.0 | 0.0 | 0.01 | 0.06 | 0.06 | 94 | 1019.4 |
| 20260831033056 | 70 | 161 | 0.0 | 0.0 | 0.01 | 0.06 | 0.06 | 95 | 1019.5 |
| 20260831031555 | 70 | 161 | 0.0 | 0.0 | 0.01 | 0.06 | 0.06 | 95 | 1019.8 |
| 20260831030055 | 70 | 161 | 0.0 | 0.0 | 0.01 | 0.06 | 0.06 | 95 | 1019.9 |
| 20260831024555 | 70 | 161 | 0.0 | 0.0 | 0.00 | 0.05 | 0.05 | 95 | 1020.0 |
| 20260831023054 | 70 | 161 | 0.0 | 0.0 | 0.00 | 0.05 | 0.05 | 94 | 1020.0 |
| 20260831021555 | 70 | 161 | 0.0 | 0.0 | 0.01 | 0.05 | 0.05 | 94 | 1020.0 |
| 20260831020053 | 70 | 161 | 0.0 | 0.0 | 0.02 | 0.05 | 0.05 | 94 | 1020.0 |
| 20260831014551 | 70 | 161 | 0.0 | 0.0 | 0.03 | 0.05 | 0.05 | 94 | 1019.9 |
| 20260831013105 | 71 | 161 | 0.0 | 0.0 | 0.04 | 0.05 | 0.05 | 94 | 1019.8 |
| 20260831011551 | 71 | 161 | 0.0 | 0.0 | 0.04 | 0.04 | 0.04 | 94 | 1019.8 |
| 20260831010053 | 71 | 161 | 0.0 | 0.0 | 0.03 | 0.03 | 0.03 | 93 | 1019.7 |
| 20260831004550 | 71 | 161 | 0.0 | 0.0 | 0.02 | 0.02 | 0.02 | 93 | 1019.6 |
| 20260831003049 | 71 | 161 | 0.0 | 0.0 | 0.01 | 0.01 | 0.01 | 92 | 1019.5 |
| 20260831001549 | 71 | 161 | 0.0 | 0.0 | 0.00 | 0.00 | 0.00 | 91 | 1019.3 |
| 20260831000048 | 72 | 161 | 0.0 | 0.0 | 0.00 | 0.00 | 0.00 | 91 | 1019.1 |
| 20260830234549 | 72 | 161 | 0.0 | 0.0 | 0.00 | 0.00 | 0.00 | 90 | 1018.9 |
| 20260830233047 | 72 | 161 | 0.0 | 0.0 | 0.00 | 0.00 | 0.00 | 89 | 1018.8 |
| 20260830231558 | 73 | 161 | 0.0 | 0.0 | 0.00 | 0.00 | 0.00 | 88 | 1018.7 |